TimeEST,TemperatureF,Dew PointF,Humidity,Sea Level PressureIn,VisibilityMPH,Wind Direction,Wind SpeedMPH,Gust SpeedMPH,PrecipitationIn,Events,Conditions,WindDirDegrees,DateUTC
12:53 AM,36.0,33.1,89,30.15,10.0,Calm,Calm,-,N/A,,Clear,0,2013-01-21 05:53:00
1:53 AM,33.1,32.0,96,30.15,10.0,Calm,Calm,-,N/A,,Clear,0,2013-01-21 06:53:00
2:53 AM,32.0,30.9,96,30.15,10.0,Calm,Calm,-,N/A,,Clear,0,2013-01-21 07:53:00
3:53 AM,32.0,30.0,92,30.14,10.0,Calm,Calm,-,N/A,,Clear,0,2013-01-21 08:53:00
4:53 AM,30.0,28.9,96,30.13,10.0,Calm,Calm,-,N/A,,Clear,0,2013-01-21 09:53:00
5:53 AM,30.9,30.0,96,30.13,10.0,Calm,Calm,-,N/A,,Clear,0,2013-01-21 10:53:00
6:53 AM,30.9,28.9,92,30.14,10.0,Calm,Calm,-,N/A,,Clear,0,2013-01-21 11:53:00
7:53 AM,30.0,28.0,92,30.16,10.0,Calm,Calm,-,N/A,Fog,Shallow Fog,0,2013-01-21 12:53:00
8:53 AM,33.1,30.9,92,30.19,10.0,Calm,Calm,-,N/A,,Clear,0,2013-01-21 13:53:00
9:53 AM,41.0,34.0,76,30.21,10.0,NNE,4.6,-,N/A,,Partly Cloudy,20,2013-01-21 14:53:00
10:53 AM,45.0,21.9,40,30.22,10.0,North,12.7,-,N/A,,Partly Cloudy,350,2013-01-21 15:53:00
11:53 AM,46.9,18.0,32,30.21,10.0,North,9.2,-,N/A,,Scattered Clouds,350,2013-01-21 16:53:00
12:53 PM,48.0,17.1,29,30.18,10.0,NNW,11.5,-,N/A,,Partly Cloudy,340,2013-01-21 17:53:00
1:53 PM,48.9,18.0,29,30.17,10.0,NNW,13.8,-,N/A,,Partly Cloudy,330,2013-01-21 18:53:00
2:53 PM,50.0,19.0,29,30.16,10.0,WNW,5.8,-,N/A,,Partly Cloudy,300,2013-01-21 19:53:00
3:53 PM,48.9,15.1,26,30.17,10.0,West,10.4,-,N/A,,Partly Cloudy,270,2013-01-21 20:53:00
4:53 PM,46.9,16.0,29,30.19,10.0,NW,12.7,-,N/A,,Partly Cloudy,320,2013-01-21 21:53:00
5:53 PM,42.1,17.1,37,30.18,10.0,NNW,6.9,-,N/A,,Partly Cloudy,330,2013-01-21 22:53:00
6:53 PM,39.0,18.0,43,30.22,10.0,NW,10.4,-,N/A,,Partly Cloudy,320,2013-01-21 23:53:00
7:53 PM,36.0,18.0,48,30.22,10.0,NW,5.8,-,N/A,,Partly Cloudy,310,2013-01-22 00:53:00
8:53 PM,33.1,19.9,59,30.24,10.0,NNW,5.8,-,N/A,,Clear,330,2013-01-22 01:53:00
9:53 PM,32.0,21.9,66,30.24,10.0,NNW,6.9,-,N/A,,Clear,330,2013-01-22 02:53:00
10:53 PM,33.1,17.1,52,30.26,10.0,NNW,9.2,-,N/A,,Clear,330,2013-01-22 03:53:00
11:53 PM,32.0,16.0,52,30.26,10.0,North,5.8,-,N/A,,Clear,350,2013-01-22 04:53:00